Time,TemperatureF,DewpointF,PressureIn,WindDirection,WindDirectionDegrees,WindSpeedMPH,WindSpeedGustMPH,Humidity,HourlyPrecipIn,Conditions,Clouds,dailyrainin,SoftwareType,DateUTC
2013-06-02 00:07:00,45.1,40.0,25.94,SW,222,1.0,2.0,81,0.00,,,0.00,weatherlink.com 1.10,2013-06-02 06:07:00,
2013-06-02 00:22:00,44.9,39.0,25.94,SW,232,0.0,2.0,81,0.00,,,0.00,weatherlink.com 1.10,2013-06-02 06:22:00,
2013-06-02 00:37:00,44.2,39.0,25.94,WSW,255,4.0,5.0,82,0.00,,,0.00,weatherlink.com 1.10,2013-06-02 06:37:00,
2013-06-02 00:52:00,43.2,39.0,25.94,West,269,2.0,4.0,84,0.00,,,0.00,weatherlink.com 1.10,2013-06-02 06:52:00,
2013-06-02 01:07:00,42.3,38.0,25.94,WNW,283,2.0,3.0,85,0.00,,,0.00,weatherlink.com 1.10,2013-06-02 07:07:00,
2013-06-02 01:22:00,41.9,39.0,25.94,NW,316,2.0,3.0,88,0.00,,,0.00,weatherlink.com 1.10,2013-06-02 07:22:00,
2013-06-02 01:37:00,41.6,38.0,25.93,West,278,1.0,1.0,86,0.00,,,0.00,weatherlink.com 1.10,2013-06-02 07:37:00,
2013-06-02 01:52:00,40.5,38.0,25.93,WNW,290,1.0,3.0,89,0.00,,,0.00,weatherlink.com 1.10,2013-06-02 07:52:00,
2013-06-02 02:07:00,41.4,38.0,25.93,WNW,291,0.0,3.0,88,0.00,,,0.00,weatherlink.com 1.10,2013-06-02 08:07:00,
2013-06-02 02:23:00,40.8,38.0,25.93,WNW,294,0.0,1.0,89,0.00,,,0.00,weatherlink.com 1.10,2013-06-02 08:23:00,
2013-06-02 02:38:00,40.7,38.0,25.92,WNW,293,1.0,1.0,88,0.00,,,0.00,weatherlink.com 1.10,2013-06-02 08:38:00,
2013-06-02 02:53:00,40.4,37.0,25.92,West,264,1.0,3.0,88,0.00,,,0.00,weatherlink.com 1.10,2013-06-02 08:53:00,
2013-06-02 03:08:00,39.5,37.0,25.92,WSW,249,2.0,3.0,90,0.00,,,0.00,weatherlink.com 1.10,2013-06-02 09:08:00,
2013-06-02 03:23:00,40.1,38.0,25.92,West,272,3.0,5.0,91,0.00,,,0.00,weatherlink.com 1.10,2013-06-02 09:23:00,
2013-06-02 03:38:00,40.6,37.0,25.91,West,259,0.0,3.0,88,0.00,,,0.00,weatherlink.com 1.10,2013-06-02 09:38:00,
2013-06-02 03:53:00,40.1,37.0,25.91,West,259,1.0,1.0,88,0.00,,,0.00,weatherlink.com 1.10,2013-06-02 09:53:00,
2013-06-02 04:08:00,38.9,36.0,25.91,West,262,1.0,2.0,90,0.00,,,0.00,weatherlink.com 1.10,2013-06-02 10:08:00,
2013-06-02 04:23:00,39.1,37.0,25.91,West,276,0.0,2.0,90,0.00,,,0.00,weatherlink.com 1.10,2013-06-02 10:23:00,
2013-06-02 04:38:00,39.6,37.0,25.90,WSW,253,1.0,2.0,91,0.00,,,0.00,weatherlink.com 1.10,2013-06-02 10:38:00,
2013-06-02 04:53:00,39.9,37.0,25.90,West,260,0.0,2.0,88,0.00,,,0.00,weatherlink.com 1.10,2013-06-02 10:53:00,
2013-06-02 05:08:00,39.2,37.0,25.90,West,266,0.0,1.0,90,0.00,,,0.00,weatherlink.com 1.10,2013-06-02 11:08:00,
2013-06-02 05:23:00,40.5,37.0,25.90,WSW,256,1.0,2.0,88,0.00,,,0.00,weatherlink.com 1.10,2013-06-02 11:23:00,
2013-06-02 05:38:00,40.9,37.0,25.89,West,260,1.0,2.0,87,0.00,,,0.00,weatherlink.com 1.10,2013-06-02 11:38:00,
2013-06-02 05:53:00,41.9,38.0,25.89,SW,231,1.0,2.0,86,0.00,,,0.00,weatherlink.com 1.10,2013-06-02 11:53:00,
2013-06-02 06:08:00,42.9,39.0,25.89,West,262,4.0,5.0,85,0.00,,,0.00,weatherlink.com 1.10,2013-06-02 12:08:00,
2013-06-02 06:23:00,43.3,39.0,25.89,WSW,246,3.0,5.0,85,0.00,,,0.00,weatherlink.com 1.10,2013-06-02 12:23:00,
2013-06-02 06:38:00,44.3,40.0,25.89,SSW,207,4.0,6.0,85,0.00,,,0.00,weatherlink.com 1.10,2013-06-02 12:38:00,
2013-06-02 06:53:00,45.9,42.0,25.89,WSW,248,4.0,7.0,85,0.00,,,0.00,weatherlink.com 1.10,2013-06-02 12:53:00,
2013-06-02 07:08:00,47.8,42.0,25.89,SW,225,9.0,9.0,81,0.00,,,0.00,weatherlink.com 1.10,2013-06-02 13:08:00,
2013-06-02 07:23:00,49.2,43.0,25.88,SSW,212,9.0,11.0,78,0.00,,,0.00,weatherlink.com 1.10,2013-06-02 13:23:00,
2013-06-02 07:38:00,49.8,43.0,25.88,SSW,212,6.0,11.0,76,0.00,,,0.00,weatherlink.com 1.10,2013-06-02 13:38:00,
2013-06-02 07:53:00,50.9,44.0,25.87,SSW,207,8.0,11.0,76,0.00,,,0.00,weatherlink.com 1.10,2013-06-02 13:53:00,
2013-06-02 08:08:00,52.0,44.0,25.87,SSW,195,13.0,15.0,75,0.00,,,0.00,weatherlink.com 1.10,2013-06-02 14:08:00,
2013-06-02 08:23:00,54.1,44.0,25.86,SW,232,13.0,16.0,69,0.00,,,0.00,weatherlink.com 1.10,2013-06-02 14:23:00,
2013-06-02 08:38:00,55.8,43.0,25.86,South,191,5.0,16.0,63,0.00,,,0.00,weatherlink.com 1.10,2013-06-02 14:38:00,
2013-06-02 08:53:00,57.8,42.0,25.85,WSW,250,5.0,17.0,57,0.00,,,0.00,weatherlink.com 1.10,2013-06-02 14:53:00,
2013-06-02 09:09:00,58.8,42.0,25.85,SSW,210,12.0,15.0,54,0.00,,,0.00,weatherlink.com 1.10,2013-06-02 15:09:00,
2013-06-02 09:24:00,60.2,43.0,25.84,WSW,238,9.0,17.0,53,0.00,,,0.00,weatherlink.com 1.10,2013-06-02 15:24:00,
2013-06-02 09:39:00,61.0,42.0,25.84,SW,226,13.0,16.0,50,0.00,,,0.00,weatherlink.com 1.10,2013-06-02 15:39:00,
2013-06-02 09:54:00,61.3,42.0,25.83,South,189,14.0,18.0,49,0.00,,,0.00,weatherlink.com 1.10,2013-06-02 15:54:00,
2013-06-02 10:09:00,62.2,42.0,25.83,WSW,238,10.0,14.0,48,0.00,,,0.00,weatherlink.com 1.10,2013-06-02 16:09:00,
2013-06-02 10:24:00,62.6,42.0,25.82,SSW,207,5.0,18.0,47,0.00,,,0.00,weatherlink.com 1.10,2013-06-02 16:24:00,
2013-06-02 10:39:00,63.1,43.0,25.82,South,188,9.0,22.0,48,0.00,,,0.00,weatherlink.com 1.10,2013-06-02 16:39:00,
2013-06-02 10:54:00,63.7,43.0,25.81,SW,235,10.0,24.0,47,0.00,,,0.00,weatherlink.com 1.10,2013-06-02 16:54:00,
2013-06-02 11:09:00,64.1,43.0,25.81,SSW,211,13.0,22.0,47,0.00,,,0.00,weatherlink.com 1.10,2013-06-02 17:09:00,
2013-06-02 11:24:00,65.4,43.0,25.80,South,174,11.0,21.0,45,0.00,,,0.00,weatherlink.com 1.10,2013-06-02 17:24:00,
2013-06-02 11:39:00,66.8,43.0,25.80,SSW,193,14.0,22.0,43,0.00,,,0.00,weatherlink.com 1.10,2013-06-02 17:39:00,
2013-06-02 11:54:00,67.8,45.0,25.79,West,260,10.0,21.0,44,0.00,,,0.00,weatherlink.com 1.10,2013-06-02 17:54:00,
2013-06-02 12:09:00,67.5,43.0,25.79,SW,218,12.0,22.0,42,0.00,,,0.00,weatherlink.com 1.10,2013-06-02 18:09:00,
2013-06-02 12:24:00,68.7,45.0,25.78,SSW,198,17.0,22.0,43,0.00,,,0.00,weatherlink.com 1.10,2013-06-02 18:24:00,
2013-06-02 12:39:00,69.5,44.0,25.77,SSW,198,13.0,23.0,40,0.00,,,0.00,weatherlink.com 1.10,2013-06-02 18:39:00,
2013-06-02 12:54:00,70.8,45.0,25.77,SW,228,11.0,16.0,40,0.00,,,0.00,weatherlink.com 1.10,2013-06-02 18:54:00,
2013-06-02 13:09:00,71.8,47.0,25.76,SSW,198,15.0,21.0,41,0.00,,,0.00,weatherlink.com 1.10,2013-06-02 19:09:00,
2013-06-02 13:25:00,72.2,44.0,25.75,SSE,159,16.0,22.0,37,0.00,,,0.00,weatherlink.com 1.10,2013-06-02 19:25:00,
2013-06-02 13:40:00,72.9,46.0,25.75,SSW,200,16.0,24.0,38,0.00,,,0.00,weatherlink.com 1.10,2013-06-02 19:40:00,
2013-06-02 13:55:00,73.4,44.0,25.74,SSW,204,9.0,26.0,35,0.00,,,0.00,weatherlink.com 1.10,2013-06-02 19:55:00,
2013-06-02 14:10:00,73.9,45.0,25.73,SW,226,12.0,24.0,36,0.00,,,0.00,weatherlink.com 1.10,2013-06-02 20:10:00,
2013-06-02 14:25:00,74.8,45.0,25.73,South,186,12.0,21.0,35,0.00,,,0.00,weatherlink.com 1.10,2013-06-02 20:25:00,
2013-06-02 14:40:00,74.9,45.0,25.72,WSW,249,15.0,27.0,35,0.00,,,0.00,weatherlink.com 1.10,2013-06-02 20:40:00,
2013-06-02 14:55:00,75.2,45.0,25.72,South,181,18.0,27.0,34,0.00,,,0.00,weatherlink.com 1.10,2013-06-02 20:55:00,
2013-06-02 15:10:00,74.6,44.0,25.71,SSW,206,8.0,20.0,33,0.00,,,0.00,weatherlink.com 1.10,2013-06-02 21:10:00,
2013-06-02 15:25:00,75.3,44.0,25.71,West,277,7.0,23.0,33,0.00,,,0.00,weatherlink.com 1.10,2013-06-02 21:25:00,
2013-06-02 15:40:00,75.7,42.0,25.70,South,184,10.0,25.0,30,0.00,,,0.00,weatherlink.com 1.10,2013-06-02 21:40:00,
2013-06-02 15:55:00,75.9,45.0,25.69,SSW,193,10.0,24.0,33,0.00,,,0.00,weatherlink.com 1.10,2013-06-02 21:55:00,
2013-06-02 16:10:00,76.4,44.0,25.68,WSW,249,17.0,25.0,32,0.00,,,0.00,weatherlink.com 1.10,2013-06-02 22:10:00,
2013-06-02 16:25:00,76.9,47.0,25.68,SSW,200,12.0,24.0,35,0.00,,,0.00,weatherlink.com 1.10,2013-06-02 22:25:00,
2013-06-02 16:40:00,75.9,46.0,25.67,ESE,120,18.0,30.0,35,0.00,,,0.00,weatherlink.com 1.10,2013-06-02 22:40:00,
2013-06-02 16:55:00,74.7,47.0,25.66,SE,146,16.0,22.0,37,0.00,,,0.00,weatherlink.com 1.10,2013-06-02 22:55:00,
2013-06-02 17:10:00,73.9,47.0,25.66,South,170,17.0,26.0,38,0.00,,,0.00,weatherlink.com 1.10,2013-06-02 23:10:00,
2013-06-02 17:25:00,75.2,47.0,25.66,South,180,21.0,24.0,37,0.00,,,0.00,weatherlink.com 1.10,2013-06-02 23:25:00,
2013-06-02 17:40:00,74.8,47.0,25.65,South,179,14.0,26.0,37,0.00,,,0.00,weatherlink.com 1.10,2013-06-02 23:40:00,
2013-06-02 17:55:00,74.3,48.0,25.64,SSW,194,10.0,28.0,39,0.00,,,0.00,weatherlink.com 1.10,2013-06-02 23:55:00,
2013-06-02 18:11:00,74.1,47.0,25.64,South,190,21.0,26.0,38,0.00,,,0.00,weatherlink.com 1.10,2013-06-03 00:11:00,
2013-06-02 18:25:00,73.7,47.0,25.64,SSW,197,19.0,26.0,39,0.00,,,0.00,weatherlink.com 1.10,2013-06-03 00:25:00,
2013-06-02 18:40:00,72.7,48.0,25.64,South,181,18.0,25.0,41,0.00,,,0.00,weatherlink.com 1.10,2013-06-03 00:40:00,
2013-06-02 18:55:00,72.0,48.0,25.64,SE,133,11.0,25.0,42,0.00,,,0.00,weatherlink.com 1.10,2013-06-03 00:55:00,
2013-06-02 19:10:00,71.6,47.0,25.63,South,170,13.0,28.0,41,0.00,,,0.00,weatherlink.com 1.10,2013-06-03 01:10:00,
2013-06-02 19:25:00,70.8,46.0,25.63,SSE,165,18.0,26.0,42,0.00,,,0.00,weatherlink.com 1.10,2013-06-03 01:25:00,
2013-06-02 19:40:00,69.5,47.0,25.63,SSW,194,19.0,22.0,45,0.00,,,0.00,weatherlink.com 1.10,2013-06-03 01:40:00,
2013-06-02 19:55:00,68.2,46.0,25.64,SE,145,14.0,21.0,46,0.00,,,0.00,weatherlink.com 1.10,2013-06-03 01:55:00,
2013-06-02 20:10:00,67.1,47.0,25.64,SSE,159,14.0,22.0,48,0.00,,,0.00,weatherlink.com 1.10,2013-06-03 02:10:00,
2013-06-02 20:25:00,65.9,46.0,25.64,South,184,11.0,23.0,49,0.00,,,0.00,weatherlink.com 1.10,2013-06-03 02:25:00,
2013-06-02 20:40:00,64.4,47.0,25.64,South,178,15.0,18.0,53,0.00,,,0.00,weatherlink.com 1.10,2013-06-03 02:40:00,
2013-06-02 20:55:00,63.9,46.0,25.63,SSE,150,13.0,21.0,53,0.00,,,0.00,weatherlink.com 1.10,2013-06-03 02:55:00,
2013-06-02 21:10:00,63.3,47.0,25.64,South,170,18.0,21.0,55,0.00,,,0.00,weatherlink.com 1.10,2013-06-03 03:10:00,
2013-06-02 21:25:00,62.7,47.0,25.64,SSE,158,16.0,20.0,56,0.00,,,0.00,weatherlink.com 1.10,2013-06-03 03:25:00,
2013-06-02 21:40:00,62.5,46.0,25.64,SSW,198,12.0,23.0,56,0.00,,,0.00,weatherlink.com 1.10,2013-06-03 03:40:00,
2013-06-02 21:55:00,62.2,46.0,25.64,ESE,114,20.0,25.0,56,0.00,,,0.00,weatherlink.com 1.10,2013-06-03 03:55:00,
2013-06-02 22:10:00,61.8,46.0,25.64,SE,138,20.0,26.0,57,0.00,,,0.00,weatherlink.com 1.10,2013-06-03 04:10:00,
2013-06-02 22:25:00,61.3,46.0,25.64,SSW,207,16.0,26.0,58,0.00,,,0.00,weatherlink.com 1.10,2013-06-03 04:25:00,
2013-06-02 22:40:00,60.8,47.0,25.64,SSW,207,13.0,31.0,60,0.00,,,0.00,weatherlink.com 1.10,2013-06-03 04:40:00,
2013-06-02 22:56:00,60.4,47.0,25.64,SSW,203,17.0,29.0,61,0.00,,,0.00,weatherlink.com 1.10,2013-06-03 04:56:00,
2013-06-02 23:11:00,59.9,47.0,25.64,ESE,120,18.0,29.0,62,0.00,,,0.00,weatherlink.com 1.10,2013-06-03 05:11:00,
2013-06-02 23:26:00,59.3,47.0,25.63,SW,221,18.0,33.0,64,0.00,,,0.00,weatherlink.com 1.10,2013-06-03 05:26:00,
2013-06-02 23:41:00,58.7,47.0,25.63,SSW,201,13.0,27.0,65,0.00,,,0.00,weatherlink.com 1.10,2013-06-03 05:41:00,
2013-06-02 23:56:00,58.0,47.0,25.63,South,169,18.0,27.0,67,0.00,,,0.00,weatherlink.com 1.10,2013-06-03 05:56:00,